Wind_Speed
32 31 29 28 27 25 24 21 20 18 16 15 14 13 12 11 10 9 8 8 7 6 5 5 5 5 4 4 4 4 3 3 2 1 0 1 2 3 4 6 7 8 9
33 33 32 30 29 28 26 24 22 20 19 17 16 15 14 13 12 11 10 9 8 7 7 6 6 5 5 5 5 5 4 4 3 2 2 2 2 3 4 6 7 8 9
34 34 33 32 31 30 28 27 25 23 21 19 18 17 15 14 13 12 12 10 10 9 8 8 7 6 6 6 6 6 5 5 4 4 3 3 3 4 5 6 7 8 9
35 35 35 34 33 32 31 29 27 25 24 22 20 18 17 16 15 14 13 12 11 10 10 9 8 7 7 7 7 7 6 6 5 5 4 4 4 5 5 6 7 8 10
37 36 36 36 34 34 33 31 30 27 26 24 22 21 19 18 17 16 15 14 13 12 11 11 9 9 8 8 8 8 8 7 7 6 6 6 6 6 6 7 8 9 10
39 38 38 38 36 36 35 33 32 30 28 26 25 23 21 19 18 17 16 16 15 14 13 12 11 10 10 9 9 9 9 8 8 8 7 7 7 7 8 8 9 10 11
40 40 40 40 38 37 36 36 34 32 30 28 27 25 23 21 20 19 18 17 16 15 14 14 13 12 11 11 10 10 10 10 10 9 9 9 9 9 9 10 10 11 12
42 42 41 42 41 40 38 37 36 35 32 31 29 27 25 23 22 20 19 18 18 17 16 15 14 13 12 12 12 12 11 11 11 11 10 10 10 10 10 11 12 12 13
43 42 42 43 43 42 40 39 38 37 35 33 31 30 28 26 24 22 21 20 19 19 18 17 16 15 14 13 13 13 13 13 12 12 12 12 11 12 12 12 13 13 14
45 44 43 43 45 45 43 41 40 39 37 36 34 32 30 28 26 25 23 22 21 20 19 19 18 17 16 15 15 15 14 14 13 13 13 13 13 13 13 14 14 15 16
46 46 46 44 45 47 46 44 43 41 39 38 36 35 32 30 28 27 25 24 23 22 21 20 19 18 17 17 16 16 16 15 15 15 15 14 15 15 15 15 16 16 17
47 48 47 46 46 48 48 46 45 44 42 40 38 37 35 33 31 29 27 26 25 24 22 22 21 20 19 18 18 18 18 17 17 17 17 16 16 17 17 17 17 18 19
49 50 49 49 49 48 49 47 46 45 44 42 40 39 37 35 33 31 29 28 27 26 24 23 22 22 21 20 20 20 19 19 19 19 18 18 18 18 18 19 19 19 20
51 51 51 51 51 51 50 49 47 46 46 44 42 41 39 37 35 33 32 30 29 28 27 25 25 24 23 22 21 21 21 21 21 21 20 20 20 20 20 20 20 21 21
52 52 52 52 52 53 53 51 49 47 47 45 44 42 41 39 37 35 33 32 31 30 29 27 26 25 25 24 23 23 23 22 22 22 22 22 22 22 22 22 22 22 23
53 53 53 53 53 54 54 52 50 48 47 47 46 44 43 41 39 38 36 34 33 32 31 29 28 27 26 25 25 24 24 24 24 24 23 23 23 23 23 23 24 24 24
55 55 54 53 54 56 55 54 53 50 49 49 48 47 45 43 42 40 38 37 35 34 33 31 30 29 28 27 27 26 26 26 26 25 25 25 25 24 25 25 25 26 26
57 57 56 54 54 56 57 56 54 52 50 50 49 48 47 46 44 43 41 39 37 36 34 33 31 31 30 29 29 28 28 28 27 27 27 27 27 27 27 27 27 28 28
55 57 55 56 54 55 57 57 55 54 52 51 51 51 49 48 46 44 42 40 39 38 36 35 33 32 32 31 30 30 30 29 29 29 29 29 29 29 29 29 29 29 29
52 53 53 54 57 57 57 57 57 55 53 52 52 51 50 49 49 47 44 42 41 39 38 37 36 35 34 33 32 32 32 31 31 31 31 31 32 31 31 31 31 30 30
50 52 52 51 53 55 56 57 60 57 55 53 52 53 53 51 50 48 45 44 42 41 40 39 38 37 36 35 35 34 34 34 34 33 32 33 33 33 33 32 32 32 31
48 48 51 51 52 53 54 55 58 58 55 54 52 53 52 51 52 49 48 46 45 44 43 42 41 39 39 37 37 37 36 35 35 34 34 34 33 33 33 33 33 33 33
42 44 46 49 50 51 51 52 55 57 55 53 53 52 52 51 51 49 48 47 47 46 45 44 43 42 41 40 39 39 38 37 36 35 35 34 34 34 35 35 34 34 34
37 39 41 43 45 48 51 51 52 53 54 53 52 52 52 51 49 49 49 49 49 47 46 46 45 44 44 42 41 40 39 39 38 37 36 35 35 36 36 36 36 35 34
34 36 39 40 41 45 48 49 51 52 53 53 53 52 52 52 50 49 51 50 50 49 48 48 47 45 45 44 42 41 41 41 40 39 38 37 37 37 37 37 36 36 36
29 33 37 38 40 43 45 47 49 51 52 52 52 52 52 53 52 51 51 51 51 50 50 50 49 47 46 45 44 44 44 43 42 41 39 39 39 39 39 37 37 37 38
Wind_Direction
235 234 231 229 229 229 230 229 231 234 236 239 242 246 249 250 249 248 246 249 252 255 256 254 249 240 233 227 221 220 220 221 220 217 243 338 358 6 8 9 8 7 6
236 234 233 231 229 229 230 230 231 233 235 237 240 244 247 248 248 246 245 248 251 253 255 254 251 245 240 234 231 230 232 234 235 236 254 281 314 338 350 354 356 357 358
237 235 235 233 231 230 230 230 231 232 234 236 239 242 244 246 247 245 245 247 249 252 253 252 250 248 244 239 237 237 239 240 242 246 255 271 295 317 331 339 344 348 350
238 236 234 234 232 230 230 230 231 232 234 236 237 240 242 244 245 245 244 246 249 251 252 252 250 247 246 243 242 242 245 246 247 252 259 270 287 303 315 324 333 338 340
238 236 234 233 233 232 230 230 231 232 233 235 237 238 240 242 244 244 244 245 248 250 251 251 250 247 246 245 245 246 248 249 251 256 263 270 282 295 305 313 322 328 332
239 235 233 232 232 232 231 230 230 231 232 234 236 237 238 240 242 243 243 244 247 248 249 250 249 249 246 246 248 250 251 252 254 257 263 270 280 289 297 304 313 320 325
238 236 234 232 229 230 231 231 230 231 232 233 235 236 237 238 239 241 241 243 246 247 248 248 249 249 247 246 249 252 254 255 257 259 264 270 276 284 292 299 307 314 319
238 235 234 232 229 229 230 231 230 230 231 232 234 235 236 238 239 240 241 242 245 246 247 248 248 249 248 248 250 253 256 258 259 261 265 269 275 281 289 296 303 308 313
235 232 231 231 229 228 229 230 230 230 231 232 233 234 235 237 238 239 240 242 244 245 246 247 248 249 250 249 251 253 255 257 260 263 266 270 275 281 287 293 298 303 308
233 230 230 230 229 228 228 229 229 229 230 231 232 234 235 236 238 239 240 242 243 244 246 247 247 249 251 251 252 253 255 256 259 263 266 270 274 279 284 290 294 299 304
233 231 229 227 227 228 228 229 229 229 229 230 231 233 235 236 238 239 240 242 243 243 244 246 248 249 251 253 254 255 256 257 259 262 265 269 273 278 283 287 292 296 300
233 230 229 227 227 226 227 228 228 228 229 230 231 233 234 236 237 239 240 241 242 242 244 245 248 250 251 254 255 255 257 258 259 261 265 268 273 277 282 286 290 294 298
232 229 227 226 225 224 224 226 227 227 228 230 232 232 234 236 237 239 241 241 242 242 243 245 247 250 251 253 255 257 258 259 260 261 265 268 273 277 281 285 289 292 296
229 227 226 226 224 223 223 225 226 226 228 230 232 232 234 236 237 239 240 241 242 242 242 244 247 249 251 252 255 257 259 260 261 263 266 269 272 276 280 284 287 291 295
227 225 224 225 225 224 224 224 226 226 228 229 230 232 233 235 237 238 240 241 242 243 243 245 247 249 251 252 254 257 258 260 261 263 266 269 272 275 279 282 286 290 294
225 223 223 223 224 222 223 223 225 225 227 228 230 232 233 234 236 238 239 240 242 242 243 244 247 249 251 252 254 256 257 259 261 263 265 268 271 275 278 281 284 288 292
223 222 222 222 223 222 222 223 225 226 227 228 230 232 233 234 235 236 237 239 240 242 243 245 247 249 251 253 255 257 258 260 261 263 265 268 271 274 277 280 284 287 290
223 222 222 222 222 222 221 223 225 225 227 227 229 231 232 235 236 236 237 238 239 241 243 245 247 249 251 253 254 256 258 260 262 263 265 268 271 274 277 281 283 286 288
222 221 221 220 220 222 222 223 224 225 227 227 229 230 232 234 235 235 236 237 239 240 242 245 247 249 251 253 254 256 258 260 262 263 265 268 271 273 277 280 283 286 288
223 222 221 222 223 222 222 223 225 227 227 228 230 230 231 232 234 234 233 235 238 241 243 245 247 249 250 252 254 256 258 260 262 264 267 269 271 273 276 279 282 285 287
225 222 221 221 221 221 223 225 226 227 228 229 229 229 230 232 233 233 233 236 238 241 243 245 246 248 250 251 253 256 258 261 263 265 267 271 272 274 276 279 281 283 286
224 223 223 223 223 223 225 226 227 227 229 229 229 230 230 232 233 233 234 237 238 240 243 244 246 248 250 251 254 256 258 261 263 265 268 270 271 274 276 278 279 281 284
227 226 224 224 225 226 226 226 227 227 226 227 229 230 231 232 233 234 235 236 238 240 243 245 247 249 251 252 255 258 259 261 264 265 267 269 271 273 275 277 278 281 283
231 228 224 224 227 229 230 230 229 229 228 228 229 230 231 231 232 234 235 236 238 240 243 245 247 249 250 252 255 257 260 261 263 264 266 268 270 272 275 276 277 279 281
235 234 229 229 228 229 229 230 230 230 230 231 231 232 233 231 232 234 235 236 239 240 243 246 247 248 251 253 255 257 259 262 263 264 266 267 269 272 274 275 275 276 278
235 235 234 233 232 231 231 232 232 232 232 233 233 233 233 232 233 236 238 238 240 241 243 245 247 248 250 252 254 257 260 261 262 263 265 267 268 271 274 273 274 276 278
Height
5856 5859 5862 5864 5867 5869 5871 5873 5875 5877 5878 5879 5881 5882 5883 5883 5884 5885 5885 5885 5885 5886 5885 5885 5885 5885 5885 5885 5885 5885 5885 5885 5884 5884 5884 5883 5883 5882 5881 5880 5879 5878 5876
5851 5854 5858 5860 5863 5865 5868 5870 5872 5874 5876 5877 5879 5880 5881 5882 5883 5883 5884 5884 5884 5885 5885 5884 5884 5885 5885 5885 5885 5885 5884 5884 5884 5884 5883 5883 5882 5882 5881 5880 5879 5878 5876
5846 5849 5852 5856 5859 5861 5864 5866 5869 5871 5873 5875 5876 5878 5879 5880 5881 5882 5882 5883 5883 5883 5884 5884 5884 5884 5884 5884 5884 5884 5884 5884 5883 5883 5883 5882 5882 5881 5880 5879 5878 5877 5876
5840 5844 5847 5851 5854 5857 5860 5863 5865 5867 5870 5872 5873 5875 5876 5878 5879 5880 5880 5881 5882 5882 5882 5882 5882 5883 5883 5883 5883 5883 5883 5883 5882 5882 5882 5881 5881 5880 5880 5879 5878 5876 5875
5834 5838 5841 5845 5849 5852 5855 5858 5861 5864 5866 5868 5870 5872 5874 5875 5876 5877 5878 5879 5880 5880 5881 5881 5881 5881 5882 5882 5882 5882 5882 5882 5881 5881 5881 5880 5880 5879 5879 5878 5877 5875 5874
5827 5831 5835 5839 5843 5847 5850 5853 5857 5860 5862 5865 5867 5869 5871 5872 5873 5875 5876 5877 5877 5878 5879 5879 5880 5880 5880 5880 5880 5880 5880 5880 5880 5880 5880 5879 5879 5878 5877 5876 5875 5874 5873
5820 5824 5829 5833 5837 5841 5844 5848 5852 5855 5858 5861 5863 5865 5867 5869 5870 5872 5873 5874 5875 5876 5876 5877 5878 5878 5878 5879 5879 5879 5879 5879 5878 5878 5878 5878 5877 5877 5876 5875 5874 5873 5871
5812 5816 5821 5826 5830 5834 5838 5842 5846 5849 5853 5856 5859 5861 5863 5865 5867 5869 5870 5871 5872 5873 5874 5875 5875 5876 5876 5877 5877 5877 5877 5877 5877 5876 5876 5876 5875 5875 5874 5873 5872 5871 5870
5803 5808 5813 5818 5823 5827 5831 5836 5840 5844 5847 5851 5854 5857 5859 5861 5863 5865 5866 5868 5869 5870 5871 5872 5873 5874 5874 5874 5875 5875 5875 5875 5875 5875 5874 5874 5874 5873 5872 5871 5870 5869 5868
5794 5800 5805 5810 5815 5820 5824 5829 5833 5837 5841 5845 5848 5852 5854 5857 5859 5861 5863 5864 5865 5867 5868 5869 5870 5871 5872 5872 5872 5872 5872 5872 5872 5872 5872 5872 5871 5871 5870 5869 5868 5867 5865
5785 5791 5797 5802 5807 5812 5817 5822 5826 5830 5835 5839 5842 5846 5849 5852 5855 5857 5859 5860 5862 5863 5864 5866 5867 5868 5869 5869 5869 5870 5870 5870 5870 5870 5870 5869 5869 5868 5867 5866 5865 5864 5863
5776 5782 5788 5793 5798 5803 5809 5813 5818 5823 5828 5832 5836 5840 5844 5847 5850 5852 5854 5856 5858 5859 5861 5862 5863 5864 5865 5866 5866 5866 5867 5867 5867 5867 5867 5866 5866 5865 5864 5863 5862 5861 5860
5766 5772 5778 5784 5789 5794 5800 5805 5810 5815 5820 5825 5830 5834 5838 5841 5844 5847 5849 5851 5853 5855 5857 5858 5859 5860 5861 5862 5863 5863 5863 5863 5863 5863 5863 5863 5863 5862 5861 5860 5859 5858 5856
5755 5762 5769 5775 5780 5785 5791 5797 5802 5807 5813 5818 5823 5827 5831 5835 5838 5842 5844 5846 5848 5850 5852 5853 5855 5856 5857 5858 5859 5859 5860 5860 5860 5860 5860 5859 5859 5858 5858 5857 5856 5854 5853
5744 5751 5759 5765 5771 5777 5783 5789 5794 5800 5805 5810 5815 5820 5824 5828 5832 5835 5838 5841 5843 5845 5847 5849 5850 5851 5853 5854 5854 5855 5855 5856 5856 5856 5856 5855 5855 5854 5854 5853 5852 5851 5849
5734 5741 5748 5754 5761 5767 5773 5780 5786 5792 5797 5802 5807 5812 5817 5821 5825 5829 5832 5834 5837 5839 5841 5843 5845 5846 5847 5849 5850 5850 5851 5851 5851 5851 5851 5851 5851 5850 5849 5849 5847 5846 5845
5723 5731 5736 5742 5750 5757 5764 5771 5777 5783 5788 5794 5799 5804 5809 5813 5817 5821 5824 5828 5830 5833 5835 5837 5839 5841 5842 5844 5845 5845 5846 5846 5846 5846 5846 5846 5846 5845 5845 5844 5843 5841 5840
5712 5720 5726 5733 5739 5746 5753 5760 5767 5774 5779 5785 5790 5796 5801 5805 5809 5813 5817 5821 5824 5826 5829 5831 5833 5835 5837 5838 5839 5840 5840 5841 5841 5841 5841 5841 5841 5840 5839 5839 5838 5836 5835
5701 5709 5715 5722 5729 5736 5743 5751 5757 5764 5770 5776 5781 5787 5792 5797 5801 5805 5809 5813 5816 5819 5822 5825 5827 5829 5831 5832 5833 5834 5834 5835 5836 5836 5836 5836 5836 5835 5834 5833 5832 5831 5829
5692 5699 5706 5713 5720 5726 5733 5740 5747 5754 5760 5766 5772 5778 5783 5788 5792 5797 5801 5805 5808 5812 5815 5817 5820 5822 5823 5825 5826 5827 5828 5829 5829 5830 5830 5829 5829 5829 5828 5827 5826 5825 5824
5684 5691 5697 5705 5711 5717 5723 5730 5737 5745 5751 5757 5763 5769 5774 5779 5783 5788 5792 5796 5800 5804 5807 5809 5812 5814 5816 5817 5819 5820 5821 5822 5823 5823 5823 5823 5823 5822 5822 5821 5820 5819 5817
5677 5683 5690 5696 5701 5708 5715 5721 5728 5735 5742 5749 5754 5759 5764 5769 5774 5779 5783 5788 5792 5795 5798 5801 5803 5806 5808 5810 5811 5812 5813 5815 5815 5816 5816 5816 5816 5815 5815 5814 5813 5812 5811
5669 5675 5682 5688 5694 5700 5707 5712 5718 5725 5732 5738 5744 5750 5756 5761 5765 5770 5775 5778 5782 5786 5789 5792 5795 5797 5800 5802 5803 5804 5806 5807 5808 5808 5808 5808 5808 5808 5807 5807 5806 5805 5804
5663 5669 5674 5680 5686 5692 5698 5703 5710 5716 5723 5729 5735 5741 5746 5751 5756 5761 5765 5769 5773 5776 5780 5783 5786 5788 5790 5792 5794 5796 5797 5798 5799 5800 5801 5800 5800 5799 5799 5799 5798 5797 5796
5657 5662 5668 5673 5678 5683 5689 5694 5700 5707 5714 5719 5725 5731 5736 5741 5746 5751 5755 5759 5763 5766 5770 5773 5776 5778 5781 5783 5785 5786 5787 5789 5790 5790 5791 5792 5792 5791 5791 5790 5789 5788 5788
5652 5657 5661 5666 5670 5674 5679 5685 5691 5697 5703 5709 5715 5721 5726 5731 5736 5740 5745 5749 5752 5756 5760 5763 5766 5768 5771 5773 5775 5776 5778 5779 5780 5781 5782 5782 5782 5782 5782 5781 5780 5780 5779